User: anonymous   Login
Location: Mauna Kea VIS
(19.7591°N, 155.4561°W)
Time: 22:50:40
(UTC-10:00)
Language:

Cosmos 1624 Rocket - Orbit

View from above orbital plane
View from above orbital plane
View from above satellite
View from above satellite

Ground track
Ground track

The orbit data is extracted from the following two-line orbital elements,

1 15483U 85006B   18111.69651527 -.00000016  00000-0  33035-5 0  9990
2 15483  74.0445 149.0604 0017810  51.5290  80.4016 14.36225731740846
Epoch (UTC): 21 April 2018 16:42:58
Eccentricity: 0.0017810
inclination: 74.0445°
perigee height: 758 km
apogee height: 784 km
right ascension of ascending node: 149.0604°
argument of perigee: 51.5290°
revolutions per day: 14.36225731
mean anomaly at epoch: 80.4016°
orbit number at epoch: 74084

The dashed part of the orbit path shows where the satellite is in the earth's shadow,  

DLR